星链-37302(STARLINK-37302)

导读

STARLINK-37302(NORAD编号68669)是美国SpaceX公司星链(Starlink)卫星互联网星座的一员,运行于近地轨道(LEO)。作为星链大规模组网部署的卫星之一,它延续了星链卫星紧凑平板化设计理念,依托SpaceX猎鹰火箭完成发射,旨在为全球尤其是地面基础设施覆盖不足的偏远地区提供高速、低延迟的宽带互联网接入服务。 该卫星目前处于在轨运行状态,遵循星链星座轨道部署方案,和其他星链卫星共同构建全球低轨卫星通信网络,推动全球互联网覆盖普及,同时也延续了星链项目自动离轨再入大气层的设计,减少空间垃圾遗留。

Basic Information
目录编号:
68669
目录名称:
STARLINK-37302
国际标识:
2026-077H
轨道中心:
EARTH
卫星名称:
星链-37302
卫星全名:
星链-37302(STARLINK-37302)
卫星状态:
在轨 (已飞行108 天)
发射日期:
2026-04-11 UTC
国别 :
美国 (US)
星等 :
--
Orbit Information
数据来源 国际轨道数据 AOE轨道数据
星历时间 2026-07-27T12:17:55+0800
22小时前
查看轨道信息
2026-07-27T00:00:00+0800
1天前
查看轨道信息
半长轴 6843.683km 6843.724km
偏心率 0.0001808 0.0001867
轨道倾角 97.286° 97.285°
近地点辐角 86.125° 88.387°
升交点赤经 78.837° 78.332°
平近点角 274.020° 324.729°
近地点 464.308km 464.309km
远地点 466.784km 466.865km
周期 93.906分钟 93.907分钟
每日圈数 15.334443 15.334304
Detailed Information
固有亮度:
5
最大亮度:
2.5
卫星平台:
Starlink V1.0
覆盖范围:
全球
运营商:
太空探索技术公司
运营商所在国:
美国
制造商(研发单位):
太空探索技术公司
制造商所在国:
美国
使用方式:
暂无
Satellite Introduction
Starlink 计划是 SpaceX 推出的全球卫星互联网项目,通过发射低轨道卫星,为全球尤其是偏远地区提供高速、低延迟的互联网服务。自 2019 年起,Starlink 已部署数千颗卫星,旨在缩小全球数字鸿沟,推动互联网普及。该项目还为军事、航空等行业提供通信支持,带来广泛经济效益。
2D Orbit Map
3D Orbit Map
Orbit Altitude Analysis Chart
Orbit Inclination Analysis Chart
Orbit Comprehensive Analysis Chart
View Comprehensive Chart